Weather Roundup
Issued by NWS Chicago, IL

Home | Current Version | Previous Version | Graphics & Text | Print | Product List | Glossary On
Versions: 1 2 3 4 5 6 7 8 9 10 11 12 13 14 15 16 17 18 19 20 21 22 23 24 25 26 27 28 29 30 31 32 33 34 35 36 37 38 39 40 41 42 43 44 45 46 47 48 49 50
000
NZUS59 KLOT 010210
HRRLOT

CHICAGO AREA WEATHER ROUNDUP
NATIONAL WEATHER SERVICE CHICAGO/ROMEOVILLE IL
900 PM CDT TUE SEP 30 2014

NOTE: "FAIR" INDICATES FEW OR NO CLOUDS BELOW 12,000 FEET WITH NO
SIGNIFICANT WEATHER AND/OR OBSTRUCTIONS TO VISIBILITY.

* THESE STATIONS ARE NOT UNDER NWS QUALITY CONTROL. THEY ALSO MAY NOT
  REPORT WEATHER SUCH AS PRECIPITATION OR FOG.

ILZ005-006-012>014-019>023-010300-
NORTHEAST ILLINOIS

CITY           SKY/WX    TMP DP  RH WIND       PRES   REMARKS
OHARE          CLOUDY    54  49  83 N5        30.02R
MIDWAY         CLOUDY    58  49  72 E8        30.02R
AURORA         CLOUDY    54  46  74 NE6       30.03R
LANSING*       CLOUDY    55  47  74 NE6       30.02R
JOLIET*        CLOUDY    54  49  83 NE5       30.02S
WAUKEGAN       CLOUDY    52  50  93 N3        30.03R
DUPAGE AIRPORT CLOUDY    53  48  83 NE6       30.02R
WHEELING       CLOUDY    55  50  83 N3        30.03S
KANKAKEE*      CLOUDY    54  47  79 NE5       30.02S
MORRIS*        CLOUDY    54  49  85 NE5       30.01S
LEWIS AIRPORT* CLOUDY    54  49  82 NE6       30.02S
NORTHERLY IS     N/A     56  48  74 NE10        N/A
$$

WIZ051-052-058>065-066-070>072-010300-
SOUTHEAST WISCONSIN

CITY           SKY/WX    TMP DP  RH WIND       PRES   REMARKS
MILWAUKEE      DRIZZLE   51  49  92 N5        30.05R FOG
KENOSHA*       CLOUDY    51  50  96 N5        30.04R FOG
RACINE*        CLOUDY    52  50  93 N6        30.05R
BURLINGTON     CLOUDY    48  47  97 CALM      30.04S
WAUKESHA       CLOUDY    46  45  93 NE6       30.06R
WEST BEND      CLOUDY    46  43  87 N3        30.05S FOG
$$

INZ001>003-010>013-019-020-010300-
NORTHWEST INDIANA

CITY           SKY/WX    TMP DP  RH WIND       PRES   REMARKS
GARY*          NOT AVBL
MICHIGAN CITY* NOT AVBL
RENSSELAER*    NOT AVBL
VALPARAISO     MOCLDY    52  46  80 NE5       30.02R
$$

LMZ740>746-010300-
SOUTHERN LAKE MICHIGAN

STATION/POSITION TIME  SKY/WX   TEMP WIND        PRES    VSBY
                                AIR  DIR/SP/G
                 (UTC)          (F)  (DEG/KT/KT) (MB)    (MI)
HARRISON CRIB    0200            56   70/ 10/ 13   N/A
BURNHAM HARBOR   0200            56   70/ 10/ 13   N/A
CALUMET HARBOR   0200            56   20/  6/ 10 1015.4S
BURNS HARBOR     NOT AVBL
MICHIGAN CITY    0200            54   60/  8/ 10   N/A
$$

ABBREVIATIONS USED IN REMARKS
   TC - TEMPERATURE IN CELSIUS
  WCI - WIND CHILL INDEX
   HX - HEAT INDEX
  VSB - VISIBILITY
$$



USA.gov is the U.S. government's official web portal to all federal, state and local government web resources and services.